Preview of NWS' New Version of Forecast
This preview is not operational and should not be used for support decisions.

Regional Weather Roundup (RWR)

Issued by National Weather Service (NWS)

                            
000
ASCA42 TJSJ 210610
RWRPR 
PUERTO RICO/U.S. VIRGIN ISLANDS HOURLY WEATHER ROUNDUP
NATIONAL WEATHER SERVICE SAN JUAN PR
200 AM AST THU FEB 21 2019

PRZ001>002-007>008-010-210700-
PUERTO RICO
  
CITY           SKY/WX    TMP DP  RH WIND       PRES   REMARKS
SAN JUAN LMM   PTCLDY    73  66  78 E13       30.10R                  
CEIBA          MOCLDY    73  66  78 NE12      30.11F                  
$$

VIZ001>002-210700-
U.S. VIRGIN ISLANDS
  
CITY           SKY/WX    TMP DP  RH WIND       PRES   REMARKS
CHARLOTTE AMA  PTCLDY    75  66  73 E8        30.09F                  
CHRISTIANSTED  MOCLDY    79  64  61 E14G23    30.08F                  
$$

HOURLY WEATHER ROUNDUP FOR THE NEWS MEDIA
  
CITY           SKY/WX    TMP DP  RH WIND       PRES   REMARKS
ORLANDO        FAIR      72  68  87 S7        30.12S                  
NEW YORK       LGT RAIN  33  33 100 NE10      30.01  FOG     WCI  25  
NEWARK         FRZ RAIN  33  32  96 N10       30.00F WCI  25          
CHICAGO        CLOUDY    35  24  64 W18G28    29.89R WCI  24          
HARTFORD       FRZ RAIN  30  30 100 SE9       30.15F FOG     WCI  22  
BOSTON         LGT SNOW  27  24  89 S8        30.18F VSB 3/4 WCI  19  
DALLAS         CLOUDY    48  39  71 E7        29.99F                  
PHILADELPHIA   LGT RAIN  34  33  96 NE7       29.98  FOG     WCI  28  
LOS ANGELES    PTCLDY    52  41  66 W16       29.71F                  
WASHINGTON DC  CLOUDY    32  31  96 CALM      30.02F FOG